Vertical_Velocity
-4 -2 2 1 -3 -5 0 -0 -0 0 -2 -1 1 1 -0 -1 2 1 -1 0 -0 -2 0 0 2 0 -2 -1 -2 -0 0 2 3 -2 -0 -4 -3 -1 -3 2 -5 -2 -8 -5 -6 -9 -20 -6 -1 -3 6 4 4 4
-1 -2 -2 -2 -2 -4 -2 2 5 0 0 -0 -0 2 -1 -1 -0 0 2 -1 -1 -2 3 0 1 -0 -1 -1 -1 0 -2 -1 -4 -3 -5 -3 -4 -2 -3 -9 2 -9 -1 -2 -2 -4 -1 1 -3 2 4 -4 -1 7
-4 2 -0 1 -1 -6 -4 1 -0 1 1 1 2 1 0 -1 -1 1 -2 1 -2 1 -2 1 -0 -1 1 -0 -0 -0 1 0 1 2 -2 -5 -4 -1 -7 3 -3 -1 -5 2 -7 8 -0 2 1 -2 4 2 -3 -2
9 5 3 4 2 -3 2 -1 2 -2 0 1 -1 2 2 -2 1 -2 -2 -5 -0 -2 -8 6 -0 3 3 -1 -1 -0 -2 0 -2 -1 1 3 -12 7 0 -2 -3 -8 -3 -1 5 1 1 9 7 3 0 -2 11 -5
5 4 4 11 8 3 5 3 2 2 1 8 0 2 2 1 2 1 -4 -2 1 0 -5 2 5 1 4 -1 0 4 -2 -2 -0 2 1 2 -3 -12 4 3 -3 0 -0 -3 -6 -3 0 -3 -2 -2 -2 3 -3 8
3 -3 6 6 7 7 8 4 7 1 5 4 4 5 3 5 2 -2 -5 4 4 -0 -7 -10 4 5 2 4 1 4 -4 -5 -3 -1 4 7 3 -13 -0 -3 -0 -3 -1 1 0 -2 -3 2 -0 -1 -4 -1 -6 -0
2 1 -0 3 6 6 9 10 8 10 8 4 8 9 4 11 -3 -7 9 5 -0 1 -1 -20 -10 16 7 4 3 -3 -2 -5 -2 -3 8 1 4 -17 7 -6 -2 -4 -3 -3 -2 -1 -3 -6 -0 -1 -2 -2 -1 -1
0 2 -1 6 3 8 -3 8 12 12 15 8 8 17 11 -2 -3 -6 5 5 6 7 5 -25 -13 9 7 7 -3 2 -2 -2 -0 -4 1 2 8 -5 -5 -0 1 -2 -4 -5 -2 -3 -2 -2 -1 -3 -3 -2 -9 -4
2 2 1 -1 4 6 11 4 14 13 19 38 7 0 8 -4 -20 -2 16 12 -2 12 -5 -15 -3 4 12 14 2 1 1 -2 -10 -1 1 -1 9 1 -2 -3 -1 -2 -2 -5 -3 -0 -3 -2 -0 0 -3 -1 -4 -3
-2 -1 2 6 -6 -4 2 14 16 28 27 -1 28 27 9 -16 -4 25 2 -1 -3 -9 -25 -17 3 -2 11 8 4 1 -0 0 -21 5 -6 3 5 -3 -3 -1 -3 -2 -3 -5 -6 -3 -4 -4 -7 -3 -3 -4 -4 -1
-4 2 -3 2 3 1 11 2 9 16 13 22 12 16 6 4 13 18 8 -4 -11 -16 -7 -9 2 8 14 -4 6 6 -3 -4 -18 1 -3 -6 8 -4 1 1 1 -4 -7 -5 -2 -2 -2 -1 -4 -7 -7 -9 -0 -7
-1 -3 -4 -5 3 -6 15 24 -9 2 2 23 31 33 29 16 26 22 -1 -17 -19 -12 -22 3 16 16 -3 9 8 2 1 -5 -11 -5 2 -1 -2 0 0 1 -0 -4 -5 -4 -3 -5 -1 -1 -6 -4 -5 -5 -2 -7
-3 -0 2 -2 -3 5 9 -3 23 -2 7 1 25 16 23 24 19 -1 -30 -30 -14 6 26 14 2 11 13 10 2 4 0 -6 -2 -6 -6 18 -2 -3 -2 -3 -1 -4 -3 -2 -4 -3 -5 -3 -5 -4 -5 -3 -1 -1
-1 -1 -1 -2 -0 3 5 -7 18 12 14 18 9 11 34 3 -18 -22 2 14 2 15 16 9 3 4 5 15 7 4 -1 -1 -19 -4 18 -7 1 -2 -4 -6 -0 2 -1 -3 -2 -2 -2 -3 -3 -0 -4 -2 -2 -5
2 4 0 -3 6 5 5 -12 14 20 13 20 10 -0 -7 6 -8 8 0 7 10 5 8 7 7 9 9 9 7 3 -4 -12 -3 7 -4 1 -1 -1 -1 -2 -3 -2 3 -6 -2 -1 -2 -5 -8 -1 -3 -8 -5 -1
3 -2 0 3 9 7 -1 11 -2 14 15 20 9 -2 -9 5 0 -1 -1 10 5 5 13 10 9 6 1 5 2 -0 -5 12 7 -10 -8 -6 -1 -6 -3 -1 -1 -4 -3 -3 -6 -1 -5 -4 -4 -2 -4 -4 -4 -6
1 -2 13 7 -1 6 4 -7 11 17 46 14 -1 0 -16 1 -5 8 -3 10 2 0 4 13 9 8 1 -7 -3 1 12 1 -2 -4 -7 -2 -2 -1 -3 -1 0 1 -3 -3 -3 -4 -4 -3 -3 -3 -5 -9 -6 -7
-1 17 6 7 -1 12 -14 -0 10 17 10 -1 -2 -1 1 2 -8 -12 5 7 1 2 11 7 16 -0 -2 -5 12 10 -7 -2 -3 -2 -4 -2 -5 -1 0 1 -2 2 -2 1 -2 -3 -2 0 -3 -6 -7 -4 -6 -8
13 10 -1 2 8 7 8 3 -3 20 -2 12 7 5 1 8 -1 -1 5 2 -5 -1 6 3 5 -8 -0 6 3 -2 -1 -2 -0 2 -6 3 1 -1 -4 -6 -3 -1 -2 -6 -3 -8 -2 3 -6 -3 -4 -5 -5 -6
8 1 4 -2 -2 0 -2 -5 7 5 3 3 12 1 2 4 1 1 4 9 1 -6 -2 -16 -4 5 10 6 0 0 -1 -1 5 -3 -5 2 1 -4 -2 4 -10 -3 2 -4 -2 -4 -8 -2 -4 -4 -4 -4 -7 -6
-1 9 8 9 6 6 4 -1 4 -2 6 6 11 8 2 12 6 -2 5 13 6 -15 -10 11 7 5 -0 0 -1 4 -1 3 0 0 -3 -2 -1 -4 -8 5 -1 -3 -5 -5 -3 -4 -6 -6 -3 -2 -4 -4 -4 -5
6 3 7 10 4 -2 2 1 2 3 7 10 12 16 9 8 11 10 9 -11 -21 -7 4 12 5 -3 1 -4 1 8 7 1 -6 -3 2 2 -5 -3 -4 2 1 2 -2 -3 -1 -4 -4 -7 -7 -4 -3 -3 -4 -4
4 3 6 11 7 3 -7 0 0 4 -3 -1 15 5 6 6 -0 6 -11 -19 -13 20 7 3 1 -1 -2 2 4 4 2 -6 -9 7 4 -2 -1 -4 3 -2 -2 1 -1 -4 -5 -1 -4 -4 -7 -3 -2 -3 -4 -4
9 7 9 3 -3 -3 -0 -2 2 3 4 4 1 1 1 1 9 2 -18 -5 41 0 -4 -1 -6 -4 -0 4 6 -0 -2 -2 -1 8 -2 2 -4 1 0 -3 -2 -3 0 -2 -3 -2 -4 -6 -4 -3 -3 -4 -5 -4
4 6 -4 -6 -6 -5 -7 -4 -1 3 -10 2 2 4 1 8 3 -2 -6 32 11 1 -6 -3 -3 2 3 5 0 4 1 1 -2 -5 3 0 -1 -4 -0 -2 -2 1 2 -1 -3 -2 -6 -4 -4 -2 -2 -4 -5 -3
2 0 3 3 -1 -4 -6 -4 1 -6 -4 6 10 7 11 12 3 -9 3 11 -0 -4 3 3 3 -1 2 3 1 4 3 -3 -2 -0 -0 -1 0 1 -0 -1 -1 -1 0 -1 -1 -4 -4 -5 -2 -1 -3 -4 -4 -4
-2 1 -0 -0 -3 1 -0 4 5 -3 0 8 12 14 6 1 -4 -5 14 2 -2 2 6 1 1 -0 3 5 4 3 -1 3 -0 -3 4 -1 1 -1 1 1 -2 -1 -2 -2 -4 -3 -3 -3 -2 -3 -2 -2 -4 -4
-2 -3 1 2 -0 4 3 2 -1 -7 -0 5 5 8 6 1 2 6 1 2 5 6 5 -3 -0 2 2 3 2 1 2 1 -0 3 1 1 -1 0 1 0 -0 -1 -3 -4 -4 -3 -2 -2 -2 -4 -3 -2 -3 -3
-5 4 3 0 -3 -3 -3 1 -1 1 0 1 2 7 5 4 2 -3 -0 -1 4 8 2 1 1 4 4 3 1 0 0 0 2 2 1 2 1 -2 2 1 -2 -4 -1 -1 -3 -3 -1 -2 -3 -3 -3 -3 -1 -3
-1 -1 -0 2 2 3 5 5 6 2 -0 3 5 5 5 1 5 3 2 -1 3 5 5 4 3 1 -0 1 -1 -0 2 2 3 2 3 -1 1 3 1 -1 -3 -3 -3 -2 -2 -1 -1 -2 -4 -3 -2 -2 -2 -2
-0 -0 -1 -1 2 4 3 5 5 1 -1 2 2 5 6 0 1 -0 0 4 6 2 1 4 2 0 -1 -1 -0 -0 1 3 2 1 -0 3 1 -1 -2 -1 -2 -1 -2 -2 -1 -1 -1 -2 -2 -1 -1 -0 -1 -2
4 10 7 4 2 -1 1 1 5 6 5 5 5 3 5 6 7 8 2 1 0 -0 0 -0 -1 1 1 1 1 0 2 2 4 4 2 1 1 1 0 -1 -1 -3 -2 -1 -2 -2 -1 -0 -1 -0 -1 -1 -1 -2
2 1 4 4 3 2 3 3 4 4 3 4 3 4 6 6 3 -1 -0 1 1 2 3 2 1 1 2 2 0 1 4 2 0 0 1 1 1 1 -1 -1 -2 -2 -1 -2 -3 -2 -0 -1 -2 -1 0 0 -0 -1
Height
5723 5729 5734 5736 5741 5745 5749 5751 5753 5755 5758 5759 5761 5763 5763 5764 5764 5765 5765 5765 5765 5764 5763 5762 5760 5758 5753 5750 5746 5743 5739 5734 5730 5725 5719 5711 5704 5698 5691 5684 5674 5664 5653 5643 5632 5622 5612 5601 5589 5576 5567 5551 5537 5523
5707 5713 5720 5724 5728 5733 5736 5741 5743 5744 5746 5747 5750 5752 5753 5754 5754 5754 5755 5754 5754 5754 5755 5753 5752 5750 5747 5743 5740 5736 5732 5727 5723 5718 5714 5708 5701 5694 5688 5680 5671 5662 5652 5640 5629 5619 5611 5600 5589 5578 5567 5555 5542 5528
5689 5696 5702 5708 5713 5718 5723 5728 5731 5733 5735 5736 5737 5739 5741 5744 5745 5745 5743 5743 5743 5744 5742 5743 5742 5740 5738 5735 5733 5730 5725 5722 5717 5713 5709 5703 5697 5690 5683 5677 5668 5660 5649 5639 5628 5621 5612 5601 5590 5579 5568 5556 5546 5532
5669 5673 5682 5688 5694 5701 5706 5711 5715 5720 5723 5724 5726 5727 5729 5730 5732 5732 5733 5731 5733 5733 5731 5734 5732 5729 5728 5727 5724 5721 5718 5714 5710 5705 5702 5697 5691 5686 5679 5672 5664 5655 5644 5636 5627 5618 5611 5602 5592 5581 5569 5558 5547 5533
5649 5655 5659 5668 5674 5681 5688 5694 5699 5705 5707 5709 5712 5714 5716 5716 5717 5719 5719 5720 5721 5723 5722 5722 5722 5719 5717 5717 5715 5713 5710 5707 5702 5698 5694 5690 5685 5679 5673 5667 5659 5650 5640 5631 5623 5616 5609 5599 5590 5580 5570 5560 5550 5540
5628 5637 5642 5647 5655 5663 5672 5678 5683 5689 5692 5695 5697 5699 5702 5703 5705 5705 5706 5709 5711 5709 5709 5710 5710 5708 5709 5706 5705 5703 5702 5698 5695 5690 5687 5682 5677 5672 5665 5660 5654 5644 5635 5627 5619 5610 5604 5597 5588 5579 5569 5560 5551 5542
5604 5611 5621 5630 5635 5644 5651 5661 5668 5672 5678 5681 5683 5684 5687 5689 5690 5692 5697 5698 5696 5697 5698 5697 5693 5698 5698 5698 5695 5693 5691 5689 5686 5682 5678 5673 5668 5664 5657 5651 5646 5638 5631 5622 5614 5607 5600 5594 5586 5577 5568 5560 5552 5543
5581 5588 5596 5606 5615 5623 5633 5640 5650 5656 5662 5665 5668 5668 5669 5670 5674 5678 5680 5680 5683 5685 5684 5684 5682 5685 5686 5686 5686 5683 5681 5678 5676 5672 5669 5664 5661 5653 5647 5644 5637 5630 5623 5617 5609 5601 5595 5590 5582 5576 5567 5558 5549 5542
5555 5562 5571 5582 5594 5603 5613 5623 5631 5639 5644 5641 5643 5647 5646 5648 5657 5662 5663 5665 5668 5670 5669 5673 5672 5672 5672 5675 5673 5671 5667 5665 5665 5663 5658 5655 5654 5644 5638 5634 5628 5622 5616 5610 5602 5595 5590 5583 5577 5571 5563 5555 5547 5540
5531 5538 5548 5556 5572 5586 5596 5604 5612 5615 5612 5619 5628 5627 5624 5632 5641 5644 5642 5645 5649 5652 5657 5661 5660 5660 5664 5663 5660 5658 5655 5653 5652 5652 5648 5647 5646 5634 5629 5625 5619 5612 5607 5602 5594 5588 5583 5577 5571 5566 5559 5551 5544 5536
5511 5518 5525 5533 5545 5558 5575 5586 5588 5589 5596 5602 5602 5605 5606 5612 5617 5616 5617 5623 5631 5639 5642 5647 5646 5647 5649 5650 5647 5644 5641 5640 5639 5641 5636 5636 5635 5626 5622 5616 5608 5602 5597 5592 5586 5580 5575 5569 5563 5558 5552 5546 5539 5532
5494 5501 5508 5513 5521 5533 5546 5555 5569 5576 5579 5586 5588 5589 5586 5589 5588 5587 5589 5604 5615 5621 5626 5627 5630 5633 5637 5635 5631 5630 5628 5627 5627 5628 5625 5625 5620 5616 5611 5605 5598 5593 5587 5582 5577 5572 5567 5562 5556 5550 5544 5539 5531 5526
5473 5482 5489 5496 5502 5509 5518 5531 5546 5552 5566 5566 5563 5563 5564 5562 5556 5557 5576 5592 5600 5607 5613 5617 5620 5620 5620 5619 5617 5616 5614 5614 5615 5614 5615 5614 5605 5603 5599 5594 5588 5583 5578 5572 5568 5564 5559 5554 5548 5541 5535 5530 5523 5516
5454 5462 5470 5478 5485 5490 5494 5507 5526 5536 5542 5543 5542 5539 5540 5535 5541 5559 5575 5584 5590 5596 5599 5601 5602 5602 5604 5604 5602 5601 5600 5600 5601 5603 5604 5597 5594 5590 5586 5582 5577 5572 5566 5561 5558 5554 5549 5545 5539 5533 5525 5520 5513 5506
5434 5443 5451 5461 5468 5470 5476 5485 5509 5510 5515 5518 5517 5516 5519 5531 5543 5554 5561 5569 5574 5577 5579 5583 5585 5586 5588 5585 5587 5585 5585 5586 5588 5589 5585 5584 5581 5578 5574 5569 5565 5561 5556 5553 5549 5546 5541 5536 5529 5524 5517 5510 5503 5495
5417 5426 5437 5445 5451 5453 5462 5466 5477 5490 5492 5494 5492 5498 5514 5525 5535 5542 5548 5552 5557 5560 5563 5564 5566 5566 5569 5571 5574 5573 5574 5577 5574 5572 5572 5570 5567 5564 5561 5558 5554 5550 5547 5544 5540 5537 5532 5526 5520 5514 5506 5500 5492 5485
5399 5413 5422 5427 5430 5436 5440 5449 5458 5464 5467 5468 5476 5485 5501 5515 5523 5528 5534 5538 5541 5545 5549 5549 5551 5553 5553 5556 5561 5562 5563 5561 5561 5560 5558 5556 5553 5550 5548 5545 5541 5538 5536 5533 5530 5526 5521 5515 5509 5503 5496 5489 5481 5473
5390 5401 5403 5408 5412 5417 5421 5435 5438 5438 5441 5454 5468 5479 5488 5500 5509 5518 5522 5525 5527 5531 5534 5536 5536 5536 5542 5546 5549 5549 5548 5550 5549 5547 5545 5544 5542 5538 5535 5532 5530 5527 5525 5522 5519 5515 5509 5504 5499 5492 5485 5477 5469 5459
5377 5381 5385 5393 5399 5405 5412 5419 5425 5426 5432 5448 5461 5467 5475 5485 5492 5501 5506 5509 5513 5516 5519 5522 5521 5529 5533 5535 5534 5535 5535 5536 5535 5533 5532 5532 5530 5530 5527 5522 5519 5517 5516 5513 5509 5504 5500 5493 5487 5480 5473 5465 5457 5446
5360 5364 5372 5378 5385 5393 5399 5404 5413 5421 5427 5437 5448 5455 5462 5470 5479 5484 5488 5493 5497 5500 5502 5510 5519 5519 5518 5519 5521 5522 5522 5522 5524 5521 5523 5520 5517 5516 5513 5510 5509 5506 5504 5502 5497 5493 5489 5483 5476 5469 5461 5452 5443 5433
5348 5357 5365 5370 5374 5380 5387 5394 5404 5413 5422 5428 5437 5443 5449 5454 5460 5467 5473 5476 5478 5486 5499 5502 5502 5500 5504 5506 5508 5509 5510 5511 5510 5510 5511 5508 5506 5505 5501 5498 5497 5494 5493 5491 5486 5481 5476 5471 5465 5458 5449 5440 5430 5421
5341 5347 5354 5359 5365 5372 5379 5387 5396 5406 5414 5421 5426 5431 5435 5439 5445 5450 5456 5459 5472 5483 5486 5485 5484 5488 5491 5494 5495 5495 5496 5497 5499 5499 5498 5496 5494 5493 5489 5487 5485 5484 5482 5479 5475 5470 5464 5459 5452 5445 5436 5427 5418 5410
5331 5338 5345 5351 5357 5363 5370 5379 5387 5396 5402 5406 5412 5416 5421 5424 5429 5435 5438 5453 5465 5469 5465 5467 5471 5475 5478 5480 5481 5484 5485 5486 5485 5485 5484 5483 5482 5481 5479 5477 5475 5472 5470 5466 5463 5458 5453 5447 5440 5432 5424 5415 5407 5399
5327 5334 5340 5343 5348 5354 5362 5370 5378 5387 5392 5397 5403 5406 5412 5415 5420 5420 5433 5447 5452 5446 5450 5454 5458 5463 5466 5467 5468 5470 5472 5472 5472 5471 5471 5470 5470 5468 5468 5466 5464 5461 5458 5453 5450 5446 5441 5435 5428 5420 5412 5405 5397 5390
5324 5328 5331 5336 5343 5351 5358 5365 5372 5378 5385 5391 5395 5397 5401 5404 5406 5411 5424 5431 5428 5432 5436 5440 5444 5447 5451 5451 5453 5456 5457 5459 5459 5458 5459 5459 5458 5457 5456 5454 5452 5449 5446 5441 5438 5434 5429 5422 5416 5409 5401 5395 5388 5382
5319 5323 5330 5337 5343 5350 5356 5362 5366 5372 5377 5380 5383 5387 5389 5390 5393 5401 5411 5414 5415 5420 5425 5429 5431 5434 5437 5439 5441 5443 5444 5445 5446 5447 5447 5446 5445 5445 5444 5442 5439 5436 5433 5429 5426 5422 5416 5411 5405 5397 5391 5386 5380 5374
5318 5326 5333 5338 5343 5348 5352 5356 5359 5363 5366 5370 5373 5376 5378 5380 5385 5392 5397 5399 5403 5407 5411 5415 5419 5422 5424 5425 5427 5430 5431 5433 5434 5433 5433 5433 5433 5432 5431 5429 5426 5424 5420 5417 5414 5410 5405 5399 5393 5387 5382 5377 5372 5367
5320 5325 5331 5334 5337 5340 5343 5346 5350 5352 5355 5358 5361 5364 5367 5372 5377 5379 5383 5386 5390 5393 5397 5402 5405 5407 5409 5412 5415 5417 5418 5420 5421 5421 5421 5421 5420 5418 5417 5415 5414 5411 5408 5404 5402 5397 5393 5387 5382 5377 5373 5368 5364 5359
5320 5324 5327 5329 5332 5335 5337 5340 5342 5345 5348 5350 5352 5355 5358 5362 5364 5367 5370 5374 5377 5380 5385 5388 5392 5394 5397 5399 5402 5404 5406 5408 5407 5407 5406 5407 5406 5405 5403 5402 5400 5397 5394 5392 5388 5384 5380 5375 5371 5367 5363 5359 5355 5351
5318 5320 5322 5324 5325 5327 5330 5333 5335 5336 5337 5339 5340 5343 5346 5349 5351 5354 5359 5363 5365 5369 5372 5375 5378 5382 5386 5388 5390 5391 5392 5392 5393 5393 5393 5393 5391 5391 5389 5389 5387 5384 5381 5378 5375 5371 5366 5362 5359 5356 5352 5349 5346 5342
5313 5314 5315 5317 5319 5321 5323 5324 5325 5326 5327 5328 5330 5333 5336 5340 5343 5345 5349 5352 5355 5359 5362 5364 5368 5371 5373 5375 5376 5377 5378 5379 5379 5380 5379 5377 5377 5377 5376 5375 5373 5371 5368 5365 5362 5357 5353 5350 5347 5344 5341 5339 5336 5333
5308 5309 5310 5311 5313 5315 5316 5317 5318 5318 5319 5321 5323 5325 5328 5330 5333 5338 5341 5343 5346 5349 5352 5354 5356 5358 5360 5362 5362 5364 5364 5365 5365 5364 5364 5364 5363 5363 5361 5360 5357 5355 5353 5350 5346 5343 5340 5338 5335 5332 5330 5328 5326 5323
5301 5303 5304 5304 5305 5306 5309 5311 5312 5313 5314 5316 5317 5319 5320 5323 5326 5329 5332 5335 5337 5339 5341 5343 5344 5345 5346 5348 5349 5349 5350 5350 5350 5350 5350 5349 5349 5347 5345 5343 5340 5339 5336 5334 5331 5328 5326 5324 5321 5318 5317 5316 5314 5313